This is the latest recevied weather packets stored in our database for station/object N5PA. If no packets are shown the sender has not sent any weather packets the latest 1 day(s).
| Time | Temp. | Humidity | Pressure | Rain* | Wind** | Luminosity | Snow |
|---|---|---|---|---|---|---|---|
| 1778030108 | 23.33° C | 71% | 1011.6 hPa | 0 mm | 0.89 m/s, 158° | 998 W/m² | - |
| 1778029808 | 23.33° C | 71% | 1011.5 hPa | 0 mm | 1.34 m/s, 153° | 1000 W/m² | - |
| 1778029507 | 23.33° C | 71% | 1011.4 hPa | 0 mm | 1.34 m/s, 148° | 998 W/m² | - |
| 1778029207 | 23.33° C | 71% | 1011.2 hPa | 0 mm | 1.34 m/s, 150° | 998 W/m² | - |
| 1778028906 | 23.89° C | 70% | 1011.3 hPa | 0 mm | 1.34 m/s, 146° | 998 W/m² | - |
| 1778028607 | 23.89° C | 70% | 1011.2 hPa | 0 mm | 1.34 m/s, 145° | 1000 W/m² | - |
| 1778028307 | 23.89° C | 70% | 1011.2 hPa | 0 mm | 0.89 m/s, 150° | 1000 W/m² | - |
| 1778028008 | 23.89° C | 70% | 1011.3 hPa | 0 mm | 0.89 m/s, 155° | 998 W/m² | - |
| 1778027708 | 23.89° C | 70% | 1011.2 hPa | 0 mm | 0.89 m/s, 159° | 998 W/m² | - |
| 1778027407 | 23.89° C | 69% | 1011.1 hPa | 0 mm | 0.89 m/s, 160° | 998 W/m² | - |
| 1778027106 | 23.89° C | 69% | 1011.2 hPa | 0 mm | 0.89 m/s, 150° | 998 W/m² | - |
| 1778026806 | 24.44° C | 69% | 1011.1 hPa | 0 mm | 0.89 m/s, 158° | 998 W/m² | - |
| 1778026508 | 24.44° C | 68% | 1011 hPa | 0 mm | 1.34 m/s, 164° | 998 W/m² | - |
| 1778026208 | 24.44° C | 68% | 1011.1 hPa | 0 mm | 1.34 m/s, 152° | 998 W/m² | - |
| 1778025907 | 24.44° C | 68% | 1011 hPa | 0 mm | 1.34 m/s, 144° | 998 W/m² | - |
| 1778025607 | 24.44° C | 68% | 1011 hPa | 0 mm | 0.89 m/s, 137° | 997 W/m² | - |
| 1778025308 | 24.44° C | 68% | 1011 hPa | 0 mm | 0.89 m/s, 145° | 997 W/m² | - |
| 1778025008 | 24.44° C | 68% | 1011 hPa | 0 mm | 0.89 m/s, 151° | 997 W/m² | - |
| 1778024708 | 24.44° C | 67% | 1011.1 hPa | 0 mm | 0.89 m/s, 142° | 997 W/m² | - |
| 1778024407 | 25° C | 67% | 1011 hPa | 0 mm | 1.34 m/s, 150° | 997 W/m² | - |
| 1778024107 | 25° C | 68% | 1011.1 hPa | 0 mm | 1.34 m/s, 150° | 997 W/m² | - |
| 1778023807 | 25° C | 67% | 1011.1 hPa | 0 mm | 1.34 m/s, 151° | 997 W/m² | - |
| 1778023508 | 25° C | 67% | 1011.2 hPa | 0 mm | 1.34 m/s, 154° | 997 W/m² | - |
| 1778023207 | 25° C | 66% | 1011.3 hPa | 0 mm | 1.34 m/s, 171° | 997 W/m² | - |
| 1778022907 | 25° C | 66% | 1011.4 hPa | 0 mm | 1.34 m/s, 170° | 997 W/m² | - |
* Rain latest hour (hover to see other rain measurements)
** Current wind speed in m/s (hover to see current wind gust speed)